sat.trackr.live / text

‹ back to catalog

STARLINK-2217

NORAD 48568 · 2021-041R

PAYLOAD ACTIVE UNKNOWN

§ Identity

Operator
Country
US
Launch date
2021-05-15
Launch site
AFETR
Launch vehicle
Mass (kg)
RCS (m²)

Purposes: comms

External: N2YO · Heavens-Above · Gunter

§ Orbital elements

Epoch: 2026-05-25T02:50:57.812352Z

Period
94.01 min
Inclination
53.1612°
Eccentricity
0.0001291
Mean motion
15.31690331 rev/d
Perigee alt
469.9 km
Apogee alt
471.7 km
Semi-major
6,848.9 km
B*
5.6111e-5
RAAN
131.6662°
Arg perigee
97.7968°
Mean anomaly
262.3180°
Rev number
27,697

§ Raw data

STARLINK-22171 48568U 21041R   26145.11872468  .00001376  00000+0  56111-4 0  99982 48568  53.1612 131.6662 0001291  97.7968 262.3180 15.31690331276970

JSON: /api/v1/satellites/48568 · /tle

For live sub-satellite position, see the globe view (requires WebGL).

§ Visibility from observer

Set your observer location to see the next 7 days of passes ≥ 10°. The values pass through the URL so the page stays shareable.

No JS? Fill the form by hand. The geolocation button needs JavaScript.